Theta_e
305 306 306 307 306 305 305 305 308 308 307 307 306 305 308 309 310 310 308 306 303 304 304 303 301 300 299 298 297 296 295 294 294 293 293 293 293 292
305 305 304 304 304 304 303 304 305 307 308 307 307 308 309 307 308 309 307 303 301 303 304 302 300 299 298 297 295 294 293 292 292 292 292 292 292 292
300 300 302 304 302 303 303 303 304 306 307 306 304 306 308 307 304 305 306 303 300 302 302 301 300 298 297 295 293 292 292 291 291 291 290 291 291 291
299 299 299 300 300 302 303 303 303 305 307 307 305 306 306 306 306 302 301 300 300 300 300 300 299 297 295 292 291 291 290 291 291 290 290 290 291 291
296 296 296 297 297 297 298 299 304 305 306 307 304 305 305 304 302 301 299 298 298 299 299 299 299 297 293 290 290 290 290 289 290 288 289 290 289 289
295 294 295 295 296 296 296 297 299 301 307 307 304 305 304 302 299 299 296 296 297 297 297 297 296 294 290 289 289 288 289 288 288 287 288 288 289 288
295 295 296 297 298 298 296 297 298 299 302 304 299 301 299 298 297 295 295 295 296 296 295 294 294 291 289 288 287 288 288 288 287 287 288 288 288 288
294 295 297 298 300 300 299 298 297 299 303 303 303 302 298 297 295 295 294 293 290 292 294 291 291 289 287 285 286 288 287 287 287 287 287 287 287 287
295 296 297 299 300 301 302 301 300 299 300 305 305 301 301 299 296 293 295 294 292 290 292 288 288 288 285 284 284 285 286 286 287 287 287 287 286 286
296 297 297 300 302 302 303 303 303 301 299 304 304 305 304 302 302 301 294 291 289 288 290 286 285 285 283 283 283 284 284 285 287 287 287 287 286 287
296 297 298 300 301 304 305 304 302 300 300 302 303 306 304 300 296 292 290 290 286 286 287 286 284 284 284 284 284 284 284 286 285 285 286 286 286 284
296 297 297 298 300 302 303 303 300 300 300 298 298 297 297 294 293 295 293 290 287 285 286 286 285 285 283 284 284 283 284 283 283 284 285 284 284 284
295 296 295 297 298 299 302 301 301 299 298 297 295 294 294 292 290 289 290 292 292 288 286 290 287 286 285 284 283 284 284 282 282 283 283 284 284 283
294 295 296 297 297 297 297 296 296 296 297 298 296 293 291 290 289 289 289 291 293 295 292 289 288 288 287 285 284 284 284 284 283 282 282 282 283 283
293 294 295 296 296 295 295 296 297 297 297 295 292 290 289 289 289 289 290 291 291 292 291 291 290 288 287 288 286 286 285 284 283 282 282 282 282 281
294 294 294 295 295 295 296 297 298 297 296 294 291 289 289 288 289 290 290 289 291 290 288 288 286 288 287 287 287 288 286 286 285 282 282 281 280 281
293 294 294 294 294 294 295 296 296 295 295 293 292 290 289 289 290 290 291 290 291 290 286 286 287 286 287 287 287 286 286 285 284 284 282 281 281 281
293 293 292 293 293 293 293 293 294 294 293 293 291 290 290 290 290 290 290 290 290 289 286 286 288 287 286 287 287 286 285 284 284 283 282 281 280 280
291 291 291 291 292 292 293 293 293 293 293 293 292 291 290 290 290 289 289 289 289 288 288 288 288 288 287 286 285 284 284 284 283 282 281 280 280 280
288 288 289 289 290 291 291 292 292 292 293 293 292 292 291 291 290 290 289 289 288 288 289 289 289 288 287 287 286 285 283 283 282 282 280 280 280 280
287 286 285 286 285 287 289 290 290 290 290 290 290 290 290 290 290 290 290 290 290 289 289 288 287 287 286 285 283 282 282 281 281 281 280 280 280 279
286 286 287 285 283 285 285 284 284 284 286 287 288 288 288 288 288 288 288 288 288 288 287 287 286 283 281 281 281 282 281 280 280 280 280 280 280 279
285 285 285 285 285 285 284 284 284 284 284 284 284 284 283 283 282 282 282 282 282 282 282 281 281 281 282 283 283 283 282 281 281 280 280 279 279 279
Wind_Speed
41 43 43 48 42 41 39 42 41 36 38 45 34 51 60 60 61 55 51 51 45 47 45 39 33 31 30 28 27 25 23 22 19 17 14 12 10 8
39 40 44 44 43 42 44 45 43 46 40 41 49 47 54 52 57 60 55 52 46 47 46 43 38 36 34 33 28 25 23 22 20 15 14 11 9 8
44 44 44 41 46 45 45 48 48 43 46 34 45 43 46 50 54 52 55 48 48 47 46 44 38 39 37 32 27 26 24 22 19 17 15 12 11 9
40 41 43 42 44 42 42 51 46 47 47 43 51 50 49 49 54 58 52 49 53 51 48 43 39 35 37 32 28 27 24 21 19 17 15 13 10 9
41 45 46 43 47 48 47 48 42 49 46 48 41 48 49 46 50 55 52 50 53 50 48 42 37 37 36 33 30 27 23 20 20 17 15 12 10 8
40 40 41 41 43 47 48 48 44 49 37 36 50 48 48 46 53 58 51 53 53 50 47 43 40 36 35 31 29 25 24 23 19 17 14 13 10 9
37 36 36 37 39 40 43 46 46 43 39 40 41 46 48 53 60 58 57 56 52 53 48 44 41 36 35 31 29 28 26 22 20 18 15 13 12 9
32 33 33 34 35 36 36 41 47 44 41 48 52 52 50 58 59 63 58 57 47 49 50 43 40 37 33 31 30 29 26 23 20 18 15 13 10 8
27 30 34 35 34 31 32 34 40 43 36 57 59 55 59 62 60 61 62 64 51 54 52 45 41 38 35 31 28 27 26 23 20 18 14 12 10 8
25 29 32 31 29 34 31 29 34 43 43 52 56 52 56 59 63 64 69 53 43 51 49 44 43 38 33 29 27 26 25 22 20 16 14 11 9 8
23 25 28 26 33 20 8 10 25 36 34 49 53 52 53 55 62 56 57 57 49 50 46 42 42 36 31 28 25 23 22 22 19 16 14 13 9 7
21 21 18 21 25 19 5 7 25 33 42 44 39 43 49 55 63 63 68 55 53 42 40 38 45 42 25 27 24 21 20 19 18 16 13 10 9 7
20 21 19 18 17 9 9 19 26 36 40 36 31 32 40 49 50 46 50 60 55 40 52 46 50 43 26 36 27 22 21 20 18 15 13 11 10 8
15 18 18 16 15 12 11 16 25 27 25 25 30 36 41 48 46 44 46 44 46 44 47 47 53 47 29 32 32 31 24 19 17 16 14 12 10 9
19 13 13 18 17 15 14 16 18 20 22 26 31 36 40 43 42 42 42 38 35 22 27 40 31 44 26 25 35 34 31 25 20 19 17 14 11 10
19 20 18 16 19 20 18 18 18 19 23 27 31 33 33 35 37 36 36 34 29 22 27 32 20 30 29 14 16 25 30 20 24 21 18 15 14 11
15 16 20 21 21 18 15 14 13 14 18 22 25 27 26 28 29 27 26 27 29 26 31 27 21 26 30 18 15 16 24 22 18 21 19 17 14 12
15 21 23 23 23 22 20 18 16 17 20 23 25 27 28 29 31 29 29 31 33 31 33 31 25 28 25 19 16 17 20 21 16 19 19 16 13 11
18 21 23 24 24 24 23 23 24 23 22 22 23 24 25 27 26 26 26 26 27 28 26 25 23 21 22 18 18 16 13 18 20 20 19 14 10 11
20 20 20 20 20 21 22 22 22 22 22 22 21 21 20 20 20 20 20 21 23 24 23 22 20 19 16 14 14 17 17 16 18 17 17 17 16 13
17 18 19 18 19 18 17 17 18 20 20 20 20 19 19 18 20 20 19 19 19 20 20 20 19 16 13 11 12 16 17 16 15 15 15 15 16 15
17 16 16 18 18 17 15 17 18 17 16 16 17 17 17 17 18 18 17 18 17 17 16 15 15 14 12 11 11 12 15 17 17 16 14 14 14 9
18 18 17 16 16 16 16 17 19 19 18 17 17 17 17 17 16 15 15 14 14 13 13 13 13 12 11 10 9 10 11 13 14 15 15 14 12 11
Wind_Direction
269 268 267 267 264 263 260 262 252 248 228 231 223 225 225 221 216 213 208 206 206 207 213 206 202 194 195 183 183 184 181 184 178 191 186 188 185 187
274 274 272 268 266 266 266 263 253 243 247 236 230 237 233 226 223 216 207 204 204 208 210 207 206 195 192 191 189 187 188 186 181 190 192 193 195 195
278 278 272 265 267 263 262 261 258 244 236 234 228 225 229 234 212 212 208 207 198 205 206 205 208 202 199 200 194 193 193 181 184 192 186 190 195 201
282 280 275 272 269 264 260 249 256 249 237 232 234 226 225 223 221 218 208 205 202 204 204 211 209 209 209 203 191 195 190 189 191 197 194 200 204 202
280 277 278 276 273 270 265 258 251 249 237 225 226 228 224 218 214 209 207 199 200 197 204 206 210 211 207 203 197 196 192 193 190 192 191 195 197 194
288 285 282 278 273 269 263 259 252 250 227 223 217 219 211 208 205 201 190 193 193 200 197 202 202 206 204 202 200 193 194 193 183 192 191 190 189 194
295 294 291 287 280 272 265 254 248 242 235 214 195 195 196 195 195 188 185 183 189 196 193 191 194 198 203 201 194 196 195 186 183 189 188 193 194 186
301 299 302 301 294 289 268 252 243 236 227 200 208 203 199 197 191 188 182 180 166 189 190 184 190 188 190 187 191 194 190 187 184 188 185 188 187 185
309 311 307 299 298 294 284 267 244 233 229 215 208 211 205 203 194 185 191 188 181 181 190 175 184 182 188 187 186 186 188 185 186 190 181 182 184 180
331 325 319 316 321 318 295 268 245 222 219 213 213 215 226 211 211 209 189 172 175 177 188 163 180 180 177 180 182 183 184 183 190 187 184 184 188 188
339 334 327 323 337 348 295 233 222 210 210 210 220 222 220 212 198 179 168 171 156 167 179 168 177 171 173 179 178 181 179 185 185 185 185 190 189 182
8 1 345 335 345 343 242 157 173 183 189 187 191 194 196 192 191 198 188 170 158 156 175 166 172 171 169 181 181 178 176 179 181 184 188 182 179 176
16 19 14 359 9 357 197 175 176 174 177 178 171 177 183 181 178 177 175 186 179 172 181 186 178 177 175 178 182 184 187 184 181 182 184 191 190 187
32 34 34 31 26 34 101 130 144 148 146 159 164 171 175 174 176 176 178 181 187 195 189 187 183 185 184 177 181 190 191 190 189 188 192 191 194 198
35 40 52 57 63 74 104 121 126 132 140 147 155 162 169 176 178 179 183 185 183 173 192 182 188 192 189 189 190 190 189 196 197 194 195 201 202 201
44 55 64 73 80 90 98 112 123 136 147 152 155 159 168 173 174 179 176 172 164 148 175 182 190 203 186 178 182 196 197 195 202 199 195 199 202 208
60 63 68 72 77 84 92 99 109 127 140 146 150 156 163 169 170 174 168 165 169 158 164 165 167 184 193 201 188 184 191 194 198 202 198 201 204 210
79 77 75 75 78 83 89 100 114 127 133 142 147 151 153 161 164 167 168 166 161 160 164 168 162 164 180 185 187 193 192 197 197 200 202 202 206 211
84 82 80 79 80 83 90 103 108 113 119 123 130 138 146 151 153 158 162 164 162 160 166 171 175 181 179 182 188 187 204 199 200 199 203 202 200 218
83 81 81 81 81 83 89 96 105 115 121 122 126 131 137 144 149 152 156 161 168 169 171 177 181 187 193 198 187 193 194 204 206 203 195 206 212 225
88 91 90 92 89 90 95 97 101 106 111 116 119 126 133 140 149 155 158 164 171 173 174 176 184 191 199 201 193 188 194 193 203 212 211 212 217 226
89 92 100 104 100 103 104 104 107 113 118 125 129 134 135 141 147 151 156 159 167 173 177 181 180 183 185 186 185 188 186 194 199 205 211 226 223 222
89 93 95 97 101 111 113 110 112 115 115 112 116 121 127 132 136 141 146 152 157 160 166 168 172 173 179 192 205 203 203 203 206 206 213 222 230 249